| time (UTC) | temp F | wind direction | speed MPH | gust MPH | rain 1hr in | rain 24hr in | rain mn in | humidity % | barometer mb |
| 20260506044601 | 56 | 140 | 2.0 | 7.0 | 0.00 | 0.20 | 0.07 | 86 | 1017.7 |
| 20260506043054 | 56 | 204 | 1.0 | 8.0 | 0.00 | 0.20 | 0.07 | 85 | 1017.4 |
| 20260506041605 | 57 | 181 | 1.0 | 6.0 | 0.00 | 0.20 | 0.07 | 85 | 1017.2 |
| 20260506040055 | 57 | 213 | 2.0 | 6.0 | 0.00 | 0.20 | 0.07 | 84 | 1017.1 |
| 20260506034556 | 57 | 248 | 2.0 | 13.0 | 0.00 | 0.21 | 0.07 | 83 | 1016.9 |
| 20260506033110 | 58 | 217 | 4.0 | 11.0 | 0.00 | 0.21 | 0.07 | 81 | 1016.5 |
| 20260506031558 | 59 | 229 | 2.0 | 10.0 | 0.00 | 0.21 | 0.07 | 79 | 1016.1 |
| 20260506030053 | 59 | 217 | 3.0 | 8.0 | 0.00 | 0.21 | 0.07 | 78 | 1016.0 |
| 20260506024555 | 60 | 163 | 2.0 | 7.0 | 0.00 | 0.28 | 0.07 | 76 | 1015.9 |
| 20260506023100 | 60 | 215 | 1.0 | 7.0 | 0.00 | 0.28 | 0.07 | 75 | 1015.9 |
| 20260506021557 | 61 | 209 | 2.0 | 7.0 | 0.00 | 0.28 | 0.07 | 74 | 1015.7 |
| 20260506020051 | 62 | 232 | 3.0 | 7.0 | 0.00 | 0.28 | 0.07 | 74 | 1015.5 |
| 20260506014557 | 62 | 258 | 3.0 | 8.0 | 0.00 | 0.35 | 0.07 | 72 | 1015.4 |
| 20260506013053 | 63 | 240 | 5.0 | 9.0 | 0.00 | 0.35 | 0.07 | 70 | 1015.4 |
| 20260506011552 | 64 | 223 | 3.0 | 9.0 | 0.00 | 0.35 | 0.07 | 70 | 1015.2 |
| 20260506010054 | 64 | 248 | 5.0 | 10.0 | 0.00 | 0.35 | 0.07 | 71 | 1015.2 |
| 20260506004558 | 63 | 265 | 4.0 | 10.0 | 0.00 | 0.39 | 0.07 | 71 | 1015.3 |
| 20260506003053 | 65 | 239 | 4.0 | 10.0 | 0.00 | 0.39 | 0.07 | 70 | 1015.2 |
| 20260506001614 | 65 | 240 | 4.0 | 12.0 | 0.00 | 0.39 | 0.07 | 69 | 1015.0 |
| 20260505234556 | 64 | 289 | 3.0 | 10.0 | 0.00 | 0.43 | 0.07 | 71 | 1015.0 |
| 20260505233057 | 64 | 268 | 3.0 | 12.0 | 0.00 | 0.43 | 0.07 | 72 | 1014.9 |
| 20260505231557 | 64 | 242 | 3.0 | 9.0 | 0.00 | 0.43 | 0.07 | 72 | 1015.0 |
| 20260505230113 | 65 | 217 | 4.0 | 10.0 | 0.00 | 0.43 | 0.07 | 72 | 1014.9 |
| 20260505224555 | 65 | 215 | 3.0 | 10.0 | 0.00 | 0.50 | 0.07 | 72 | 1014.9 |
| 20260505223059 | 65 | 234 | 4.0 | 9.0 | 0.00 | 0.50 | 0.07 | 71 | 1015.0 |
| 20260505221558 | 66 | 240 | 3.0 | 7.0 | 0.00 | 0.50 | 0.07 | 71 | 1015.1 |
| 20260505220100 | 66 | 261 | 0.0 | 7.0 | 0.00 | 0.50 | 0.07 | 70 | 1015.1 |
| 20260505214608 | 65 | 268 | 2.0 | 8.0 | 0.00 | 0.50 | 0.07 | 72 | 1015.3 |
| 20260505213102 | 64 | 299 | 3.0 | 8.0 | 0.00 | 0.50 | 0.07 | 71 | 1015.4 |
| 20260505211631 | 64 | 300 | 3.0 | 8.0 | 0.00 | 0.50 | 0.07 | 72 | 1015.5 |
| 20260505210109 | 64 | 195 | 2.0 | 7.0 | 0.00 | 0.50 | 0.07 | 73 | 1015.5 |
| 20260505204603 | 64 | 279 | 3.0 | 10.0 | 0.00 | 0.50 | 0.07 | 74 | 1015.5 |
| 20260505203056 | 63 | 246 | 0.0 | 8.0 | 0.00 | 0.50 | 0.07 | 73 | 1015.5 |
| 20260505201608 | 63 | 273 | 1.0 | 6.0 | 0.00 | 0.50 | 0.07 | 74 | 1015.5 |
| 20260505194558 | 63 | 300 | 4.0 | 9.0 | 0.00 | 0.50 | 0.07 | 72 | 1015.4 |
| 20260505193057 | 65 | 313 | 2.0 | 6.0 | 0.00 | 0.50 | 0.07 | 69 | 1015.5 |
| 20260505191605 | 64 | 269 | 1.0 | 7.0 | 0.00 | 0.50 | 0.07 | 72 | 1015.7 |
| 20260505190118 | 62 | 262 | 3.0 | 9.0 | 0.00 | 0.50 | 0.07 | 73 | 1015.7 |
| 20260505184607 | 63 | 344 | 2.0 | 6.0 | 0.00 | 0.50 | 0.07 | 73 | 1015.7 |
| 20260505183057 | 63 | 0 | 3.0 | 6.0 | 0.00 | 0.50 | 0.07 | 72 | 1015.8 |
| 20260505181559 | 62 | 344 | 0.0 | 4.0 | 0.00 | 0.50 | 0.07 | 75 | 1015.7 |
| 20260505180058 | 61 | 295 | 2.0 | 7.0 | 0.00 | 0.50 | 0.07 | 75 | 1015.8 |
| 20260505174559 | 61 | 249 | 2.0 | 7.0 | 0.00 | 0.50 | 0.07 | 76 | 1015.6 |
| 20260505173100 | 61 | 351 | 0.0 | 2.0 | 0.00 | 0.50 | 0.07 | 75 | 1015.5 |
| 20260505171559 | 61 | 277 | 0.0 | 3.0 | 0.00 | 0.50 | 0.07 | 76 | 1015.5 |
| 20260505170104 | 59 | 0 | 1.0 | 4.0 | 0.00 | 0.50 | 0.07 | 79 | 1015.5 |
| 20260505164729 | 59 | 0 | 0.0 | 3.0 | 0.00 | 0.50 | 0.07 | 81 | 1015.6 |
| 20260505164609 | 59 | 0 | 0.0 | 3.0 | 0.00 | 0.50 | 0.07 | 81 | 1015.6 |
| 20260505163105 | 58 | 284 | 2.0 | 4.0 | 0.00 | 0.50 | 0.07 | 83 | 1015.5 |
| 20260505161600 | 57 | 346 | 2.0 | 4.0 | 0.00 | 0.50 | 0.07 | 86 | 1015.4 |
| 20260505153108 | 55 | 198 | 0.0 | 3.0 | 0.00 | 0.50 | 0.07 | 94 | 1015.2 |
| 20260505151556 | 54 | 267 | 0.0 | 2.0 | 0.00 | 0.50 | 0.07 | 95 | 1015.0 |
| 20260505150113 | 53 | 0 | 1.0 | 2.0 | 0.00 | 0.50 | 0.07 | 95 | 1015.1 |
| 20260505140105 | 53 | 0 | 0.0 | 1.0 | 0.00 | 0.50 | 0.07 | 95 | 1014.6 |
| 20260505124605 | 53 | 0 | 0.0 | 0.0 | 0.00 | 0.50 | 0.07 | 95 | 1013.9 |
| 20260505123110 | 53 | 0 | 0.0 | 0.0 | 0.00 | 0.50 | 0.07 | 95 | 1013.9 |
| 20260505121555 | 53 | 0 | 0.0 | 0.0 | 0.00 | 0.50 | 0.07 | 95 | 1013.9 |
| 20260505120055 | 53 | 0 | 0.0 | 1.0 | 0.00 | 0.50 | 0.07 | 95 | 1013.8 |
| 20260505114601 | 53 | 236 | 0.0 | 2.0 | 0.00 | 0.50 | 0.07 | 95 | 1014.0 |
| 20260505113055 | 53 | 0 | 0.0 | 2.0 | 0.00 | 0.50 | 0.07 | 95 | 1014.0 |
| 20260505111559 | 53 | 0 | 0.0 | 2.0 | 0.00 | 0.50 | 0.07 | 94 | 1014.1 |
| 20260505101555 | 53 | 0 | 0.0 | 3.0 | 0.01 | 0.50 | 0.07 | 94 | 1014.2 |
| 20260505100100 | 53 | 228 | 0.0 | 3.0 | 0.02 | 0.50 | 0.07 | 94 | 1014.2 |
| 20260505094552 | 53 | 0 | 0.0 | 3.0 | 0.05 | 0.50 | 0.07 | 94 | 1014.2 |
| 20260505093052 | 53 | 235 | 1.0 | 3.0 | 0.06 | 0.49 | 0.06 | 94 | 1014.1 |
| 20260505091553 | 53 | 266 | 1.0 | 3.0 | 0.06 | 0.49 | 0.06 | 94 | 1014.0 |
| 20260505090106 | 53 | 180 | 0.0 | 2.0 | 0.05 | 0.48 | 0.05 | 94 | 1014.7 |
| 20260505084554 | 53 | 0 | 0.0 | 3.0 | 0.02 | 0.45 | 0.02 | 94 | 1014.8 |
| 20260505083107 | 53 | 186 | 0.0 | 3.0 | 0.00 | 0.43 | 0.00 | 94 | 1015.0 |
| 20260505081556 | 53 | 246 | 0.0 | 2.0 | 0.00 | 0.43 | 0.00 | 94 | 1014.7 |
| 20260505080056 | 53 | 168 | 0.0 | 2.0 | 0.00 | 0.43 | 0.00 | 94 | 1015.0 |
| 20260505074552 | 53 | 155 | 0.0 | 3.0 | 0.01 | 0.43 | 0.00 | 94 | 1015.1 |
| 20260505073059 | 53 | 161 | 0.0 | 3.0 | 0.02 | 0.43 | 0.00 | 94 | 1015.0 |
| 20260505071557 | 53 | 175 | 1.0 | 3.0 | 0.12 | 0.43 | 0.00 | 93 | 1015.0 |
| 20260505070057 | 53 | 234 | 1.0 | 2.0 | 0.13 | 0.43 | 0.00 | 94 | 1014.7 |
| 20260505064554 | 53 | 125 | 1.0 | 4.0 | 0.12 | 0.42 | 0.42 | 94 | 1015.2 |
| 20260505063054 | 53 | 294 | 3.0 | 8.0 | 0.11 | 0.41 | 0.41 | 93 | 1014.7 |
| 20260505061600 | 53 | 287 | 0.0 | 3.0 | 0.01 | 0.31 | 0.31 | 93 | 1015.4 |
| 20260505060056 | 53 | 157 | 0.0 | 3.0 | 0.00 | 0.30 | 0.30 | 93 | 1015.4 |
| 20260505054558 | 53 | 0 | 1.0 | 4.0 | 0.00 | 0.30 | 0.30 | 93 | 1015.3 |
| 20260505053103 | 53 | 250 | 1.0 | 3.0 | 0.00 | 0.30 | 0.30 | 93 | 1015.1 |